This is the latest recevied weather packets stored in our database for station/object M0HPP-13. If no packets are shown the sender has not sent any weather packets the latest 10 day(s).
| Time | Temp. | Humidity | Pressure | Rain* | Wind** | Luminosity | Snow |
|---|---|---|---|---|---|---|---|
| 1777660219 | 13.89° C | 66% | 1014.3 hPa | 0 mm | - | 38 W/m² | - |
| 1777659619 | 15° C | 62% | 1014.4 hPa | 0 mm | - | 24 W/m² | - |
| 1777659019 | 14.44° C | 63% | 1014.3 hPa | 0 mm | - | 30 W/m² | - |
| 1777658419 | 14.44° C | 65% | 1014.3 hPa | 0 mm | - | 32 W/m² | - |
| 1777657819 | 14.44° C | 67% | 1014.4 hPa | 0 mm | - | 34 W/m² | - |
| 1777657219 | 15° C | 65% | 1014.2 hPa | 0 mm | - | 42 W/m² | - |
| 1777656619 | 15° C | 68% | 1014 hPa | 0 mm | - | 79 W/m² | - |
| 1777656019 | 14.44° C | 65% | 1014.1 hPa | 0 mm | - | 34 W/m² | - |
| 1777655419 | 14.44° C | 65% | 1014.1 hPa | 0 mm | - | 54 W/m² | - |
| 1777654819 | 14.44° C | 66% | 1014.1 hPa | 0 mm | - | 85 W/m² | - |
| 1777654219 | 15.56° C | 66% | 1014.1 hPa | 0 mm | - | 81 W/m² | - |
| 1777653619 | 16.11° C | 65% | 1014.2 hPa | 0 mm | - | 108 W/m² | - |
| 1777653019 | 17.78° C | 59% | 1014.2 hPa | 0 mm | - | 108 W/m² | - |
| 1777652419 | 18.33° C | 57% | 1014.3 hPa | 0 mm | - | 115 W/m² | - |
| 1777651819 | 17.78° C | 57% | 1014.3 hPa | 0 mm | - | 155 W/m² | - |
| 1777651219 | 17.78° C | 57% | 1014.4 hPa | 0 mm | - | 173 W/m² | - |
| 1777650619 | 16.67° C | 62% | 1014.5 hPa | 0 mm | - | 239 W/m² | - |
| 1777650019 | 16.11° C | 65% | 1014.6 hPa | 0 mm | - | 297 W/m² | - |
| 1777649419 | 15.56° C | 65% | 1014.8 hPa | 0 mm | - | 236 W/m² | - |
| 1777648819 | 16.11° C | 66% | 1014.9 hPa | 0 mm | - | 241 W/m² | - |
| 1777648219 | 16.11° C | 68% | 1015.1 hPa | 0 mm | - | 363 W/m² | - |
| 1777647619 | 16.11° C | 68% | 1015.2 hPa | 0 mm | - | 357 W/m² | - |
| 1777647019 | 15° C | 70% | 1015.1 hPa | 0 mm | - | 290 W/m² | - |
| 1777646419 | 14.44° C | 69% | 1015.2 hPa | 0 mm | - | 92 W/m² | - |
| 1777645819 | 14.44° C | 69% | 1015.3 hPa | 0 mm | - | 120 W/m² | - |
* Rain latest hour (hover to see other rain measurements)
** Current wind speed in m/s (hover to see current wind gust speed)